Pagina principale
METAR-TAF:

METAR-TAF

Aeroporti :

Ferrara, Italia

latitudine: 44-50N, longitudine: 011-37E, altezza: 10 m

Osservazione

Il bollettino è stato emesso 1 ora e 11 minuti fa, alle 11:55 UTC
Vento 3 kt da ovest
Temperature 6°C
Umidità 87%
Pressione 1009 hPa
Visibilità: 0800 m
Cielo coperto ad un'altezza di 1500 ft
nebbia

METAR: LIPF 161155Z 28003KT 0800 FG OVC015 06/04 Q1009 RMK OVC VIS MIN 0800

Ora: 14:06 (13:06 UTC)


TAF: mancante

Osservazioni e previsioni meteorologiche di più di 4000 aeroporti (messaggi METAR e TAF).

Le stazioni disponibili sono rappresentate dai dischi gialli e rossi sulla carta.

Puntare il mouse per vedere il nome della stazione.

Clicca sopra per visualizzare le osservazioni e previsioni meteorologiche.

Per cambiare la mappa : fare clic sui pulsanti verdi con una croce nera per ingrandire, il pulsante verde con un trattino per diminuire, o sulla freccia verde per le mappe adiacenti.


METAR-TAF: